Location: Newark
(34.2320°N, 82.8945°W)
Time: 01:10:20
(UTC+00:00)

LightSail 2 - Visible Passes

Search period start: 29 March 2020 00:00
Search period end: 08 April 2020 00:00
Orbit: 692 x 726 km, 24.0° (Epoch: 28 March)

Date Brightness Start Highest point End Pass type
(mag) Time Alt. Az. Time Alt. Az. Time Alt. Az.
04 Apr 7.4 09:56:18 10° S 09:58:12 12° SSE 10:00:07 10° SE visible
05 Apr 7.0 10:40:16 10° SW 10:43:51 20° SSE 10:47:28 10° ESE visible
06 Apr 7.0 09:43:05 14° S 09:44:46 17° SSE 09:47:55 10° SE visible
07 Apr 7.5 08:47:22 12° SE 08:47:22 12° SE 08:48:05 10° SE visible
07 Apr 6.7 10:26:30 10° SW 10:30:27 23° S 10:34:24 10° ESE visible
